Notices

What's New in latest Release from April 7th, 2021:

- Updated Glossary, including Speed of Maximum Gust, and Total Hourly Precipitation

- Updated national and regional climate services offices contacts and prices information

- Addition of station inventory lists for 1981-2010, 1971-2000, and 1961-1990 Normals.

If you haven't already, please take our survey and provide feedback about our website: https://eccc.sondage-survey.ca/f/LanguageSelection.aspx?s=442ca660-fcf1-47c0-95a9-59707d6fd709

Hourly Data Report for December 11, 2018

CARBERRY CS
MANITOBA
Current Station Operator: ECCC - MSC

49°54'20.900" N
99°21'26.800" W
383.50 m
5010547
71170
WZE

Download Data

Hourly Data (December 2018)
Hourly Data Report for December 11, 2018
TIME
LST
Temp Definition
°C
Dew Point Definition
°C
Rel Hum Definition
%
Precip. Amount Definition
mm

Wind Dir Definition
10's deg

Wind Spd Definition
km/h
Visibility Definition
km
Stn Press Definition
kPa
Hmdx Definition


Wind Chill Definition


Weather Definition


00:00 -11.6 -13.5 86 0.0 18 5   96.78   -15 LegendNANA
01:00 -10.8 -12.6 86 0.0 17 7   96.67   -15 LegendNANA
02:00 -10.3 -12.4 84 0.0 18 5   96.64   -13 LegendNANA
03:00 -10.2 -12.3 85 0.0 21 4   96.64   -13 LegendNANA
04:00 -11.2 -12.8 88 0.0 17 8   96.56   -16 LegendNANA
05:00 -10.2 -12.1 86 0.0 20 12   96.51   -16 LegendNANA
06:00 -9.1 -11.1 85 0.0 20 9   96.46   -14 LegendNANA
07:00 -8.1 -10.3 84 0.0 22 8   96.49   -12 LegendNANA
08:00 -7.4 -9.4 85 0.0 24 11   96.43   -12 LegendNANA
09:00 -6.5 -8.6 85 0.0 26 18   96.41   -13 LegendNANA
10:00 -5.3 -7.7 83 0.0 23 18   96.39   -12 LegendNANA
11:00 -3.7 -6.4 82 0.0 25 15   96.34   -9 LegendNANA
12:00 -2.9 -6.0 80 0.0 26 25   96.31   -10 LegendNANA
13:00 -1.5 -6.1 71 0.0 27 18   96.29   -7 LegendNANA
14:00 -2.4 -6.3 74 0.0 26 19   96.28   -8 LegendNANA
15:00 -2.3 -6.0 76 0.0 25 16   96.26   -7 LegendNANA
16:00 -2.3 -5.5 78 0.0 27 21   96.29   -8 LegendNANA
17:00 -3.9 -5.9 86 0.0 26 18   96.29   -10 LegendNANA
18:00 -3.6 -4.5 94 0.0 28 24   96.25   -10 LegendNANA
19:00 -2.7 -3.7 93 0.0 28 29   96.23   -10 LegendNANA
20:00 -2.6 -3.5 94 0.0 28 22   96.20   -9 LegendNANA
21:00 -1.8 -3.0 92 0.0 28 17   96.15   -7 LegendNANA
22:00 -1.7 -2.9 91 0.0 27 19   96.09   -7 LegendNANA
23:00 -1.5 -2.6 92 0.0 26 17   96.04   -7 LegendNANA

Notes on Data Quality.

Legend

  • E = Estimated
  • M = Missing
  • NA = Not Available*
  • [empty] = Indicates an unobserved value
Date modified: